This is the latest recevied weather packets stored in our database for station/object KW6V-15. If no packets are shown the sender has not sent any weather packets the latest 10 day(s).
| Time | Temp. | Humidity | Pressure | Rain* | Wind** | Luminosity | Snow |
|---|---|---|---|---|---|---|---|
| 1777327250 | 16.67° C | 70% | 1018 hPa | 0 mm | - | - | - |
| 1777325458 | 16.11° C | 69% | 1018.2 hPa | 0 mm | - | - | - |
| 1777323685 | 16.11° C | 68% | 1018 hPa | 0 mm | - | - | - |
| 1777321828 | 16.11° C | 69% | 1018.1 hPa | 0 mm | - | - | - |
| 1777320047 | 16.11° C | 71% | 1018.2 hPa | 0 mm | - | - | - |
| 1777318272 | 16.11° C | 71% | 1018.3 hPa | 0 mm | - | - | - |
| 1777316450 | 16.11° C | 73% | 1018 hPa | 0 mm | - | - | - |
| 1777314662 | 15.56° C | 73% | 1017.8 hPa | 0 mm | - | - | - |
| 1777312833 | 14.44° C | 73% | 1017.5 hPa | 0 mm | - | - | - |
| 1777311037 | 13.89° C | 75% | 1017.4 hPa | 0 mm | - | - | - |
| 1777309258 | 12.78° C | 78% | 1017.3 hPa | 0 mm | - | - | - |
| 1777307460 | 12.78° C | 78% | 1017.3 hPa | 0 mm | - | - | - |
| 1777305634 | 12.78° C | 81% | 1017.2 hPa | 0 mm | - | - | - |
| 1777303817 | 10.56° C | 91% | 1017 hPa | 0 mm | - | - | - |
| 1777302065 | 8.33° C | 93% | 1017.1 hPa | 0 mm | - | - | - |
| 1777300306 | 5° C | 92% | 1017 hPa | 0 mm | - | - | - |
| 1777298456 | 5° C | 92% | 1016.7 hPa | 0 mm | - | - | - |
| 1777296667 | 5° C | 91% | 1016.5 hPa | 0 mm | - | - | - |
| 1777294873 | 5° C | 91% | 1016.3 hPa | 0 mm | - | - | - |
| 1777291299 | 5.56° C | 91% | 1016.2 hPa | 0 mm | - | - | - |
| 1777289459 | 5.56° C | 91% | 1016.1 hPa | 0 mm | - | - | - |
| 1777287651 | 5.56° C | 90% | 1016 hPa | 0 mm | - | - | - |
| 1777285870 | 5.56° C | 89% | 1015.8 hPa | 0 mm | - | - | - |
| 1777284065 | 6.67° C | 88% | 1015.8 hPa | 0 mm | - | - | - |
| 1777282282 | 7.78° C | 86% | 1015.8 hPa | 0 mm | - | - | - |
* Rain latest hour (hover to see other rain measurements)
** Current wind speed in m/s (hover to see current wind gust speed)